Location: Red Rock Canyon
(36.1333°N, 115.4333°W)
Time: 21:23:40
(UTC-07:00)

ISS - Visible Passes

Search period start: 01 October 2014 00:00
Search period end: 11 October 2014 00:00
Orbit: 413 x 416 km, 51.6° (Epoch: 01 October)

Date Brightness Start Highest point End Pass type
(mag) Time Alt. Az. Time Alt. Az. Time Alt. Az.
01 Oct -0.1 04:11:16 15° ENE 04:11:16 15° ENE 04:12:11 10° E visible
01 Oct -2.6 05:44:12 17° WNW 05:46:13 34° SW 05:49:15 10° SSE visible
02 Oct -2.6 04:58:03 44° SSE 04:58:03 44° SSE 05:00:28 10° SE visible
03 Oct -1.0 05:44:58 11° SW 05:44:58 11° SW 05:45:23 10° SW visible
04 Oct -1.7 19:55:45 10° SSW 19:57:27 26° S 19:57:27 26° S visible
05 Oct -1.9 19:07:10 10° S 19:09:50 22° SE 19:11:06 18° E visible
05 Oct -0.1 20:43:23 10° W 20:44:00 14° W 20:44:00 14° W visible
06 Oct -2.8 19:53:49 10° WSW 19:57:05 56° NW 19:57:27 52° N visible
07 Oct -3.4 19:04:32 10° SW 19:07:50 75° SE 19:10:42 13° NE visible
07 Oct 0.0 20:42:50 10° WNW 20:43:34 13° NW 20:43:34 13° NW visible
08 Oct -1.1 19:52:42 10° W 19:55:23 22° NNW 19:56:38 18° N visible
09 Oct -1.9 19:02:52 10° WSW 19:05:57 36° NW 19:09:04 10° NNE visible
10 Oct -0.4 19:52:30 10° NW 19:53:47 12° NNW 19:55:05 10° N visible
